Blythe, CA

12:32 AM PDT on August 24, 2016 (GMT -0700)
Blythe

Weather History for KBLH - October, 2013

Change the Weather History Date:

Tuesday, October 22, 2013

  Actual Average Record
Temperature  
Mean Temperature 72 °F -  
Max Temperature 91 °F 83 °F 104 °F (2003)
Min Temperature 54 °F 56 °F 46 °F (1996)
Cooling Degree Days 8    
Growing Degree Days 22 (Base 50)    
Moisture  
Dew Point 20 °F    
Average Humidity 15    
Maximum Humidity 22    
Minimum Humidity 7    
Precipitation  
Precipitation 0.00 in - - ()
Sea Level Pressure  
Sea Level Pressure 29.91 in    
Wind  
Wind Speed 3 mph (North)    
Max Wind Speed 7 mph    
Max Gust Speed -    
Visibility 10 miles    
Events      
Averages and records for this station are not official NWS values.
T = Trace of Precipitation, MM = Missing Value Source: NWS Daily Summary

Daily Weather History Graph

Daily Weather History Graph

Search for Another Location

Airport or City:

Trip Planner

Search our weather history database for the weather conditions in past years. The results will help you decide how hot, cold, wet, or windy it might be!

Date:

Astronomy

Oct. 22, 2013 Rise Set
Actual Time 6:49 AM PDT 5:56 PM PDT
Civil Twilight 6:24 AM PDT 6:21 PM PDT
Nautical Twilight 5:55 AM PDT 6:50 PM PDT
Astronomical Twilight 5:26 AM PDT 7:19 PM PDT
Moon 8:47 PM PDT (10/22) 10:13 AM PDT (10/22)
Length of Visible Light 11h 57m
Length of Day
11h 07m
Waning Gibbous, 86% of the Moon is Illuminated
Oct 22
Waning Gibbous
Oct 26
Last Quarter
Nov 3
New
Nov 9
First Quarter
Nov 17
Full

Hourly Weather History & Observations

Time (PDT) Temp. Dew Point Humidity Pressure Visibility Wind Dir Wind Speed Gust Speed Precip Events Conditions
12:52 AM 64.9 °F 17.1 °F 16% 29.93 in 10.0 mi NW 3.5 mph - N/A   Clear
1:52 AM 61.0 °F 17.1 °F 18% 29.93 in 10.0 mi NNW 4.6 mph - N/A   Clear
2:52 AM 59.0 °F 18.0 °F 20% 29.93 in 10.0 mi Calm Calm - N/A   Clear
3:52 AM 55.9 °F 16.0 °F 21% 29.93 in 10.0 mi North 4.6 mph - N/A   Clear
4:52 AM 54.0 °F 15.1 °F 22% 29.94 in 10.0 mi NW 3.5 mph - N/A   Clear
5:52 AM 54.0 °F 16.0 °F 22% 29.95 in 10.0 mi Calm Calm - N/A   Clear
6:52 AM 57.0 °F 18.0 °F 22% 29.96 in 10.0 mi Calm Calm - N/A   Clear
7:52 AM 61.0 °F 19.9 °F 21% 29.98 in 10.0 mi Calm Calm - N/A   Clear
8:52 AM 69.1 °F 21.0 °F 16% 29.99 in 10.0 mi Calm Calm - N/A   Clear
9:52 AM 72.0 °F 21.9 °F 15% 29.99 in 10.0 mi Calm Calm - N/A   Clear
10:52 AM 77.0 °F 24.1 °F 14% 29.98 in 10.0 mi Calm Calm - N/A   Clear
11:52 AM 84.0 °F 27.0 °F 13% 29.96 in 10.0 mi Variable 3.5 mph - N/A   Clear
12:52 PM 87.1 °F 24.1 °F 10% 29.93 in 10.0 mi NNE 3.5 mph - N/A   Clear
1:52 PM 88.0 °F 23.0 °F 9% 29.90 in 10.0 mi Calm Calm - N/A   Clear
2:52 PM 91.0 °F 21.0 °F 8% 29.88 in 10.0 mi NE 3.5 mph - N/A   Clear
3:52 PM 91.0 °F 19.9 °F 7% 29.87 in 10.0 mi Calm Calm - N/A   Clear
4:52 PM 91.0 °F 21.0 °F 8% 29.85 in 10.0 mi NNE 6.9 mph - N/A   Clear
5:52 PM 87.1 °F 21.9 °F 9% 29.84 in 10.0 mi North 3.5 mph - N/A   Clear
6:52 PM 80.1 °F 19.9 °F 11% 29.85 in 10.0 mi NNW 4.6 mph - N/A   Clear
7:52 PM 75.0 °F 19.0 °F 12% 29.85 in 10.0 mi NNE 5.8 mph - N/A   Clear
8:52 PM 72.0 °F 19.9 °F 14% 29.86 in 10.0 mi North 4.6 mph - N/A   Clear
9:52 PM 71.1 °F 18.0 °F 13% 29.86 in 10.0 mi North 3.5 mph - N/A   Clear
10:52 PM 66.9 °F 19.0 °F 16% 29.86 in 10.0 mi North 5.8 mph - N/A   Clear
11:52 PM 66.0 °F 19.0 °F 17% 29.85 in 10.0 mi North 5.8 mph - N/A   Clear